| time (UTC) | temp F | wind direction | speed knots | gust knots | rain 1hr in | rain 24hr in | rain mn in | humidity % | barometer mb |
| 20260505183203 | 49 | 12 | 3.5 | 7.8 | 0.00 | 0.02 | 0.08 | 77 | 1017.5 |
| 20260505182703 | 49 | 17 | 5.2 | 8.7 | 0.00 | 0.02 | 0.08 | 77 | 1017.5 |
| 20260505182204 | 49 | 19 | 4.3 | 7.0 | 0.00 | 0.02 | 0.08 | 76 | 1017.4 |
| 20260505181204 | 50 | 20 | 5.2 | 8.7 | 0.00 | 0.02 | 0.08 | 76 | 1017.5 |
| 20260505180703 | 49 | 7 | 5.2 | 10.4 | 0.00 | 0.02 | 0.08 | 76 | 1017.4 |
| 20260505180203 | 49 | 17 | 3.5 | 10.4 | 0.00 | 0.02 | 0.08 | 76 | 1017.3 |
| 20260505175703 | 49 | 5 | 2.6 | 7.0 | 0.00 | 0.02 | 0.08 | 76 | 1017.4 |
| 20260505175203 | 49 | 7 | 4.3 | 10.4 | 0.00 | 0.02 | 0.08 | 76 | 1017.4 |
| 20260505174704 | 49 | 25 | 5.2 | 8.7 | 0.00 | 0.02 | 0.08 | 76 | 1017.4 |
| 20260505174204 | 50 | 18 | 6.1 | 10.4 | 0.00 | 0.02 | 0.08 | 76 | 1017.5 |
| 20260505173703 | 50 | 353 | 5.2 | 10.4 | 0.00 | 0.02 | 0.08 | 76 | 1017.4 |
| 20260505173204 | 50 | 15 | 5.2 | 10.4 | 0.00 | 0.02 | 0.08 | 75 | 1017.4 |
| 20260505172703 | 50 | 34 | 6.1 | 10.4 | 0.00 | 0.02 | 0.08 | 74 | 1017.4 |
| 20260505172203 | 50 | 15 | 6.1 | 10.4 | 0.00 | 0.02 | 0.08 | 74 | 1017.5 |
| 20260505171703 | 51 | 11 | 7.0 | 10.4 | 0.00 | 0.02 | 0.08 | 74 | 1017.4 |
| 20260505170204 | 52 | 28 | 4.3 | 8.7 | 0.00 | 0.02 | 0.08 | 71 | 1017.3 |
| 20260505165203 | 53 | 7 | 4.3 | 7.8 | 0.00 | 0.02 | 0.08 | 73 | 1017.4 |
| 20260505164704 | 53 | 359 | 4.3 | 7.8 | 0.00 | 0.02 | 0.08 | 71 | 1017.3 |
| 20260505164203 | 53 | 336 | 5.2 | 7.8 | 0.00 | 0.02 | 0.08 | 71 | 1017.4 |
| 20260505163704 | 53 | 29 | 3.5 | 10.4 | 0.00 | 0.02 | 0.08 | 71 | 1017.4 |
| 20260505162704 | 53 | 347 | 5.2 | 8.7 | 0.00 | 0.02 | 0.08 | 72 | 1017.4 |
| 20260505161703 | 52 | 19 | 6.1 | 10.4 | 0.00 | 0.02 | 0.08 | 73 | 1017.4 |
| 20260505161203 | 52 | 11 | 6.1 | 8.7 | 0.00 | 0.02 | 0.08 | 72 | 1017.5 |
| 20260505160704 | 52 | 350 | 5.2 | 10.4 | 0.00 | 0.02 | 0.08 | 75 | 1017.6 |
| 20260505153204 | 51 | 13 | 4.3 | 8.7 | 0.00 | 0.02 | 0.08 | 73 | 1017.7 |
| 20260505152704 | 53 | 8 | 3.5 | 7.8 | 0.00 | 0.02 | 0.08 | 73 | 1017.6 |
| 20260505152203 | 52 | 336 | 4.3 | 7.8 | 0.00 | 0.02 | 0.08 | 72 | 1017.5 |
| 20260505151204 | 52 | 355 | 4.3 | 7.8 | 0.00 | 0.02 | 0.08 | 71 | 1017.5 |
| 20260505150704 | 51 | 10 | 4.3 | 8.7 | 0.00 | 0.02 | 0.08 | 72 | 1017.5 |
| 20260505150204 | 51 | 337 | 2.6 | 10.4 | 0.00 | 0.02 | 0.08 | 71 | 1017.6 |
| 20260505140204 | 52 | 29 | 6.1 | 10.4 | 0.00 | 0.02 | 0.08 | 70 | 1017.8 |
| 20260505130204 | 52 | 313 | 3.5 | 7.8 | 0.00 | 0.02 | 0.08 | 75 | 1017.6 |
| 20260505124704 | 52 | 7 | 2.6 | 7.8 | 0.00 | 0.02 | 0.08 | 76 | 1017.7 |
| 20260505123204 | 52 | 6 | 6.1 | 11.3 | 0.00 | 0.02 | 0.08 | 75 | 1017.6 |
| 20260505122704 | 52 | 5 | 4.3 | 8.7 | 0.00 | 0.02 | 0.08 | 74 | 1017.6 |
| 20260505121703 | 52 | 331 | 2.6 | 7.0 | 0.00 | 0.02 | 0.08 | 76 | 1017.6 |
| 20260505120704 | 53 | 6 | 1.7 | 7.0 | 0.00 | 0.02 | 0.08 | 77 | 1017.6 |
| 20260505120204 | 52 | 21 | 2.6 | 7.0 | 0.00 | 0.02 | 0.08 | 77 | 1017.7 |
| 20260505115703 | 53 | 359 | 4.3 | 10.4 | 0.00 | 0.02 | 0.08 | 78 | 1017.8 |
| 20260505115203 | 52 | 11 | 5.2 | 7.8 | 0.00 | 0.02 | 0.08 | 78 | 1017.7 |
| 20260505114703 | 51 | 24 | 5.2 | 11.3 | 0.00 | 0.02 | 0.08 | 78 | 1017.7 |
| 20260505114203 | 51 | 351 | 4.3 | 8.7 | 0.00 | 0.02 | 0.08 | 79 | 1017.7 |
| 20260505113703 | 51 | 343 | 5.2 | 10.4 | 0.00 | 0.02 | 0.08 | 78 | 1017.7 |
| 20260505112704 | 50 | 26 | 5.2 | 10.4 | 0.00 | 0.02 | 0.08 | 79 | 1017.7 |
| 20260505112204 | 51 | 19 | 2.6 | 7.0 | 0.00 | 0.02 | 0.08 | 80 | 1017.7 |
| 20260505111704 | 51 | 355 | 5.2 | 7.8 | 0.00 | 0.02 | 0.08 | 80 | 1017.7 |
| 20260505111203 | 51 | 320 | 4.3 | 8.7 | 0.00 | 0.02 | 0.08 | 80 | 1017.8 |
| 20260505110703 | 51 | 24 | 7.8 | 10.4 | 0.00 | 0.02 | 0.08 | 80 | 1017.8 |
| 20260505110204 | 52 | 7 | 4.3 | 7.8 | 0.00 | 0.02 | 0.08 | 82 | 1017.7 |
| 20260505102204 | 49 | 5 | 5.2 | 11.3 | 0.00 | 0.02 | 0.08 | 86 | 1017.7 |
| 20260505101704 | 49 | 17 | 4.3 | 10.4 | 0.00 | 0.02 | 0.08 | 86 | 1017.7 |
| 20260505100704 | 50 | 32 | 6.1 | 10.4 | 0.00 | 0.02 | 0.08 | 87 | 1017.8 |
| 20260505100203 | 49 | 14 | 5.2 | 12.2 | 0.00 | 0.02 | 0.08 | 87 | 1017.9 |
| 20260505095704 | 49 | 20 | 5.2 | 10.4 | 0.00 | 0.02 | 0.08 | 87 | 1017.8 |